Saint Bonnet de Bellac- Haute Vienne - France
Donnes mto: samedi, 09/06/2012
Date Horaire Temp. E. Hum. E. P.atmo. Pluie Vent Direction Direction Ensoleilleme Solaire P. de rose Temp au vent Rafales
09/06/2012 00:00 11,4 C 80 % 1017,3 hPa 0,0 mm 0,4 km/h (0 Bft) S-SO 202 0 min 0 W/m 8,1 C 11,4 C 3,6 km/h (1 Bft)
09/06/2012 00:10 11,3 C 81 % 1017,4 hPa 0,0 mm 0,0 km/h (0 Bft) O-SO 247 0 min 0 W/m 8,2 C 11,3 C 0,0 km/h (0 Bft)
09/06/2012 00:20 11,2 C 81 % 1017,5 hPa 0,0 mm 0,0 km/h (0 Bft) O-SO 247 0 min 0 W/m 8,1 C 11,2 C 0,0 km/h (0 Bft)
09/06/2012 00:30 11,1 C 82 % 1017,5 hPa 0,0 mm 0,7 km/h (0 Bft) S-SO 202 0 min 0 W/m 8,1 C 11,1 C 0,7 km/h (0 Bft)
09/06/2012 00:40 10,8 C 82 % 1017,6 hPa 0,0 mm 0,0 km/h (0 Bft) O-SO 247 0 min 0 W/m 7,9 C 10,8 C 0,0 km/h (0 Bft)
09/06/2012 00:50 10,6 C 83 % 1017,6 hPa 0,0 mm 0,0 km/h (0 Bft) SO 225 0 min 0 W/m 7,8 C 10,6 C 3,6 km/h (1 Bft)
09/06/2012 01:00 10,5 C 84 % 1017,7 hPa 0,0 mm 0,4 km/h (0 Bft) S-SO 202 0 min 0 W/m 7,9 C 10,5 C 3,2 km/h (1 Bft)
09/06/2012 01:10 10,3 C 84 % 1017,7 hPa 0,0 mm 0,4 km/h (0 Bft) O-SO 247 0 min 0 W/m 7,7 C 10,3 C 3,2 km/h (1 Bft)
09/06/2012 01:20 10,2 C 84 % 1017,8 hPa 0,0 mm 0,0 km/h (0 Bft) SO 225 0 min 0 W/m 7,6 C 10,2 C 0,0 km/h (0 Bft)
09/06/2012 01:30 10,0 C 85 % 1017,7 hPa 0,0 mm 0,0 km/h (0 Bft) SO 225 0 min 0 W/m 7,6 C 10,0 C 0,0 km/h (0 Bft)
09/06/2012 01:40 9,9 C 86 % 1017,6 hPa 0,0 mm 0,7 km/h (0 Bft) S-SO 202 0 min 0 W/m 7,7 C 9,9 C 2,9 km/h (1 Bft)
09/06/2012 01:50 9,8 C 87 % 1017,6 hPa 0,0 mm 0,0 km/h (0 Bft) SO 225 0 min 0 W/m 7,7 C 9,8 C 0,0 km/h (0 Bft)
09/06/2012 02:00 9,6 C 87 % 1017,7 hPa 0,0 mm 0,7 km/h (0 Bft) S-SO 202 0 min 0 W/m 7,5 C 9,6 C 4,0 km/h (1 Bft)
09/06/2012 02:10 9,6 C 88 % 1017,6 hPa 0,0 mm 1,4 km/h (1 Bft) SO 225 0 min 0 W/m 7,7 C 9,6 C 3,6 km/h (1 Bft)
09/06/2012 02:20 9,6 C 88 % 1017,7 hPa 0,0 mm 0,7 km/h (0 Bft) S 180 0 min 0 W/m 7,7 C 9,6 C 3,6 km/h (1 Bft)
09/06/2012 02:30 9,5 C 88 % 1017,6 hPa 0,0 mm 0,0 km/h (0 Bft) SO 225 0 min 0 W/m 7,6 C 9,5 C 1,4 km/h (1 Bft)
09/06/2012 02:40 9,4 C 88 % 1017,7 hPa 0,0 mm 0,0 km/h (0 Bft) S-SO 202 0 min 0 W/m 7,5 C 9,4 C 1,4 km/h (1 Bft)
09/06/2012 02:50 9,3 C 89 % 1017,7 hPa 0,0 mm 0,0 km/h (0 Bft) SO 225 0 min 0 W/m 7,6 C 9,3 C 0,0 km/h (0 Bft)
09/06/2012 03:02 9,1 C 89 % 1017,6 hPa 0,0 mm 0,0 km/h (0 Bft) SO 225 0 min 0 W/m 7,4 C 9,1 C 0,0 km/h (0 Bft)
09/06/2012 03:10 8,9 C 89 % 1017,6 hPa 0,0 mm 0,0 km/h (0 Bft) S-SO 202 0 min 0 W/m 7,2 C 8,9 C 0,0 km/h (0 Bft)
09/06/2012 03:20 8,8 C 89 % 1017,4 hPa 0,0 mm 0,0 km/h (0 Bft) S-SO 202 0 min 0 W/m 7,1 C 8,8 C 0,0 km/h (0 Bft)
09/06/2012 03:30 8,7 C 90 % 1017,4 hPa 0,0 mm 0,0 km/h (0 Bft) S-SO 202 0 min 0 W/m 7,2 C 8,7 C 0,0 km/h (0 Bft)
09/06/2012 03:40 8,6 C 90 % 1017,5 hPa 0,0 mm 0,0 km/h (0 Bft) S-SO 202 0 min 0 W/m 7,1 C 8,6 C 0,0 km/h (0 Bft)
09/06/2012 03:50 8,4 C 90 % 1017,4 hPa 0,0 mm 0,0 km/h (0 Bft) S-SO 202 0 min 0 W/m 6,9 C 8,4 C 0,0 km/h (0 Bft)
09/06/2012 04:00 8,4 C 90 % 1017,3 hPa 0,0 mm 0,0 km/h (0 Bft) S-SO 202 0 min 0 W/m 6,9 C 8,4 C 0,0 km/h (0 Bft)
09/06/2012 04:10 8,3 C 90 % 1017,4 hPa 0,0 mm 0,0 km/h (0 Bft) S-SO 202 0 min 0 W/m 6,8 C 8,3 C 0,0 km/h (0 Bft)
09/06/2012 04:20 8,2 C 91 % 1017,5 hPa 0,0 mm 0,0 km/h (0 Bft) S-SO 202 0 min 0 W/m 6,8 C 8,2 C 0,0 km/h (0 Bft)
09/06/2012 04:30 8,1 C 91 % 1017,5 hPa 0,0 mm 0,0 km/h (0 Bft) S-SO 202 0 min 0 W/m 6,7 C 8,1 C 0,0 km/h (0 Bft)
09/06/2012 04:40 8,0 C 91 % 1017,4 hPa 0,0 mm 0,0 km/h (0 Bft) S-SO 202 0 min 0 W/m 6,6 C 8,0 C 0,0 km/h (0 Bft)
09/06/2012 04:50 7,9 C 91 % 1017,5 hPa 0,0 mm 0,0 km/h (0 Bft) S-SO 202 0 min 0 W/m 6,5 C 7,9 C 0,0 km/h (0 Bft)
09/06/2012 05:00 7,9 C 91 % 1017,5 hPa 0,0 mm 0,0 km/h (0 Bft) S-SO 202 0 min 0 W/m 6,5 C 7,9 C 0,0 km/h (0 Bft)
09/06/2012 05:10 7,8 C 91 % 1017,7 hPa 0,0 mm 0,0 km/h (0 Bft) S-SO 202 0 min 0 W/m 6,4 C 7,8 C 0,0 km/h (0 Bft)
09/06/2012 05:20 7,6 C 91 % 1017,7 hPa 0,0 mm 0,0 km/h (0 Bft) S-SO 202 0 min 0 W/m 6,2 C 7,6 C 0,0 km/h (0 Bft)
09/06/2012 05:30 7,5 C 91 % 1017,8 hPa 0,0 mm 0,0 km/h (0 Bft) S-SO 202 0 min 0 W/m 6,1 C 7,5 C 0,0 km/h (0 Bft)
09/06/2012 05:40 7,4 C 91 % 1017,7 hPa 0,0 mm 0,0 km/h (0 Bft) S-SO 202 0 min 0 W/m 6,0 C 7,4 C 0,0 km/h (0 Bft)
09/06/2012 05:50 7,3 C 91 % 1017,6 hPa 0,0 mm 0,0 km/h (0 Bft) S-SO 202 0 min 0 W/m 5,9 C 7,3 C 0,0 km/h (0 Bft)
09/06/2012 06:00 7,4 C 91 % 1017,7 hPa 0,0 mm 0,0 km/h (0 Bft) S-SO 202 0 min 0 W/m 6,0 C 7,4 C 0,0 km/h (0 Bft)
09/06/2012 06:10 7,4 C 91 % 1017,5 hPa 0,0 mm 0,0 km/h (0 Bft) S-SO 202 0 min 0 W/m 6,0 C 7,4 C 0,0 km/h (0 Bft)
09/06/2012 06:20 7,6 C 92 % 1017,7 hPa 0,0 mm 0,0 km/h (0 Bft) S-SO 202 0 min 0 W/m 6,4 C 7,6 C 0,0 km/h (0 Bft)
09/06/2012 06:30 7,8 C 92 % 1017,9 hPa 0,0 mm 0,0 km/h (0 Bft) S-SO 202 0 min 0 W/m 6,6 C 7,8 C 0,0 km/h (0 Bft)
09/06/2012 06:40 8,1 C 92 % 1017,8 hPa 0,0 mm 0,0 km/h (0 Bft) S-SO 202 0 min 0 W/m 6,9 C 8,1 C 0,0 km/h (0 Bft)
09/06/2012 06:50 8,3 C 92 % 1017,7 hPa 0,0 mm 0,0 km/h (0 Bft) S-SO 202 0 min 0 W/m 7,1 C 8,3 C 0,0 km/h (0 Bft)
09/06/2012 07:00 8,5 C 92 % 1017,6 hPa 0,0 mm 0,0 km/h (0 Bft) S-SO 202 0 min 0 W/m 7,3 C 8,5 C 0,0 km/h (0 Bft)
09/06/2012 07:10 8,5 C 92 % 1017,6 hPa 0,0 mm 0,0 km/h (0 Bft) S-SO 202 0 min 0 W/m 7,3 C 8,5 C 0,0 km/h (0 Bft)
09/06/2012 07:20 8,6 C 92 % 1017,4 hPa 0,0 mm 0,0 km/h (0 Bft) S-SO 202 0 min 0 W/m 7,4 C 8,6 C 0,0 km/h (0 Bft)
09/06/2012 07:30 8,8 C 92 % 1017,5 hPa 0,0 mm 0,0 km/h (0 Bft) S-SO 202 0 min 0 W/m 7,6 C 8,8 C 0,0 km/h (0 Bft)
09/06/2012 07:40 9,2 C 91 % 1017,6 hPa 0,0 mm 0,0 km/h (0 Bft) S-SO 202 0 min 0 W/m 7,8 C 9,2 C 0,0 km/h (0 Bft)
09/06/2012 07:50 9,5 C 91 % 1017,5 hPa 0,0 mm 0,7 km/h (0 Bft) S 180 0 min 0 W/m 8,1 C 9,5 C 3,2 km/h (1 Bft)
09/06/2012 08:00 10,1 C 93 % 1017,5 hPa 0,0 mm 0,0 km/h (0 Bft) S 180 0 min 0 W/m 9,0 C 10,1 C 0,0 km/h (0 Bft)
09/06/2012 08:10 10,4 C 92 % 1017,6 hPa 0,0 mm 0,0 km/h (0 Bft) S-SE 157 0 min 0 W/m 9,2 C 10,4 C 0,0 km/h (0 Bft)
09/06/2012 08:20 10,9 C 92 % 1017,8 hPa 0,0 mm 0,0 km/h (0 Bft) S-SE 157 0 min 0 W/m 9,7 C 10,9 C 0,0 km/h (0 Bft)
09/06/2012 08:30 11,5 C 92 % 1017,8 hPa 0,0 mm 0,0 km/h (0 Bft) S-SE 157 0 min 0 W/m 10,2 C 11,5 C 0,0 km/h (0 Bft)
09/06/2012 08:40 12,3 C 92 % 1017,9 hPa 0,0 mm 0,0 km/h (0 Bft) S-SE 157 0 min 0 W/m 11,0 C 12,3 C 0,0 km/h (0 Bft)
09/06/2012 08:50 12,8 C 92 % 1017,9 hPa 0,0 mm 1,1 km/h (1 Bft) S-SE 157 0 min 0 W/m 11,5 C 12,8 C 3,2 km/h (1 Bft)
09/06/2012 09:00 13,4 C 90 % 1017,9 hPa 0,0 mm 0,0 km/h (0 Bft) S-SO 202 0 min 0 W/m 11,8 C 13,4 C 0,0 km/h (0 Bft)
09/06/2012 09:10 13,8 C 84 % 1017,8 hPa 0,0 mm 4,0 km/h (1 Bft) SO 225 0 min 0 W/m 11,1 C 13,8 C 7,6 km/h (2 Bft)
09/06/2012 09:20 13,9 C 82 % 1017,8 hPa 0,0 mm 2,9 km/h (1 Bft) SO 225 0 min 0 W/m 10,9 C 13,9 C 4,3 km/h (1 Bft)
09/06/2012 09:30 14,2 C 80 % 1017,8 hPa 0,0 mm 3,2 km/h (1 Bft) S-SO 202 0 min 0 W/m 10,8 C 14,2 C 3,6 km/h (1 Bft)
09/06/2012 09:40 14,7 C 76 % 1017,8 hPa 0,0 mm 3,2 km/h (1 Bft) O-SO 247 0 min 0 W/m 10,5 C 14,7 C 3,2 km/h (1 Bft)
09/06/2012 09:50 14,9 C 76 % 1017,8 hPa 0,0 mm 4,0 km/h (1 Bft) S-SO 202 0 min 0 W/m 10,7 C 14,9 C 8,6 km/h (2 Bft)
09/06/2012 10:00 14,9 C 75 % 1017,9 hPa 0,0 mm 2,9 km/h (1 Bft) S-SO 202 0 min 0 W/m 10,5 C 14,9 C 6,1 km/h (2 Bft)
09/06/2012 10:10 15,1 C 72 % 1017,8 hPa 0,0 mm 4,7 km/h (1 Bft) S 180 0 min 0 W/m 10,1 C 15,1 C 7,6 km/h (2 Bft)
09/06/2012 10:20 15,6 C 70 % 1017,9 hPa 0,0 mm 1,8 km/h (1 Bft) S-SO 202 0 min 0 W/m 10,1 C 15,6 C 4,3 km/h (1 Bft)
09/06/2012 10:30 16,1 C 69 % 1017,8 hPa 0,0 mm 0,0 km/h (0 Bft) O-SO 247 0 min 0 W/m 10,4 C 16,1 C 0,0 km/h (0 Bft)
09/06/2012 10:40 16,6 C 67 % 1017,9 hPa 0,0 mm 0,4 km/h (0 Bft) O-SO 247 0 min 0 W/m 10,4 C 16,6 C 0,4 km/h (0 Bft)
09/06/2012 10:50 16,9 C 67 % 1017,8 hPa 0,0 mm 1,1 km/h (1 Bft) O-SO 247 0 min 0 W/m 10,7 C 16,9 C 1,4 km/h (1 Bft)
09/06/2012 11:00 16,8 C 64 % 1017,8 hPa 0,0 mm 6,8 km/h (2 Bft) S-SO 202 0 min 0 W/m 10,0 C 16,8 C 11,2 km/h (2 Bft)
09/06/2012 11:10 16,6 C 65 % 1017,7 hPa 0,0 mm 7,2 km/h (2 Bft) S-SO 202 0 min 0 W/m 10,0 C 16,6 C 7,9 km/h (2 Bft)
09/06/2012 11:20 16,3 C 65 % 1017,6 hPa 0,0 mm 4,7 km/h (1 Bft) SO 225 0 min 0 W/m 9,7 C 16,3 C 4,7 km/h (1 Bft)
09/06/2012 11:30 16,1 C 67 % 1017,6 hPa 0,0 mm 3,2 km/h (1 Bft) S-SO 202 0 min 0 W/m 10,0 C 16,1 C 3,6 km/h (1 Bft)
09/06/2012 11:40 16,0 C 67 % 1017,6 hPa 0,0 mm 2,9 km/h (1 Bft) S-SO 202 0 min 0 W/m 9,9 C 16,0 C 4,3 km/h (1 Bft)
09/06/2012 11:50 15,8 C 67 % 1017,7 hPa 0,0 mm 3,6 km/h (1 Bft) SO 225 0 min 0 W/m 9,7 C 15,8 C 8,6 km/h (2 Bft)
09/06/2012 12:00 15,4 C 68 % 1017,8 hPa 0,0 mm 4,3 km/h (1 Bft) SO 225 0 min 0 W/m 9,5 C 15,4 C 7,2 km/h (2 Bft)
09/06/2012 12:10 15,2 C 70 % 1017,8 hPa 0,0 mm 2,5 km/h (1 Bft) S-SO 202 0 min 0 W/m 9,8 C 15,2 C 6,1 km/h (2 Bft)
09/06/2012 12:20 14,9 C 70 % 1017,8 hPa 0,0 mm 4,3 km/h (1 Bft) SO 225 0 min 0 W/m 9,5 C 14,9 C 9,7 km/h (2 Bft)
09/06/2012 12:30 14,8 C 70 % 1017,9 hPa 0,0 mm 2,5 km/h (1 Bft) S-SO 202 0 min 0 W/m 9,4 C 14,8 C 6,5 km/h (2 Bft)
09/06/2012 12:40 14,4 C 74 % 1017,8 hPa 0,0 mm 2,9 km/h (1 Bft) SO 225 0 min 0 W/m 9,8 C 14,4 C 8,3 km/h (2 Bft)
09/06/2012 12:50 14,1 C 74 % 1017,8 hPa 0,0 mm 2,9 km/h (1 Bft) N 360 0 min 0 W/m 9,5 C 14,1 C 2,9 km/h (1 Bft)
09/06/2012 13:00 14,0 C 73 % 1017,8 hPa 0,0 mm 2,2 km/h (1 Bft) SO 225 0 min 0 W/m 9,2 C 14,0 C 4,3 km/h (1 Bft)
09/06/2012 13:10 14,1 C 73 % 1017,8 hPa 0,0 mm 7,2 km/h (2 Bft) O-SO 247 0 min 0 W/m 9,3 C 14,1 C 11,2 km/h (2 Bft)
09/06/2012 13:20 14,1 C 74 % 1017,7 hPa 0,0 mm 6,5 km/h (2 Bft) SO 225 0 min 0 W/m 9,5 C 14,1 C 7,2 km/h (2 Bft)
09/06/2012 13:30 13,9 C 75 % 1017,6 hPa 0,0 mm 5,0 km/h (1 Bft) S 180 0 min 0 W/m 9,5 C 13,9 C 5,0 km/h (1 Bft)
09/06/2012 13:40 13,8 C 77 % 1017,6 hPa 0,0 mm 5,4 km/h (2 Bft) S 180 0 min 0 W/m 9,8 C 13,8 C 7,2 km/h (2 Bft)
09/06/2012 13:50 13,8 C 78 % 1017,6 hPa 0,0 mm 3,6 km/h (1 Bft) SE 135 0 min 0 W/m 10,0 C 13,8 C 3,6 km/h (1 Bft)
09/06/2012 14:00 13,9 C 78 % 1017,6 hPa 0,0 mm 4,7 km/h (1 Bft) E-SE 112 0 min 0 W/m 10,1 C 13,9 C 7,6 km/h (2 Bft)
09/06/2012 14:10 14,4 C 75 % 1017,5 hPa 0,0 mm 4,7 km/h (1 Bft) S 180 0 min 0 W/m 10,0 C 14,4 C 6,8 km/h (2 Bft)
09/06/2012 14:20 14,8 C 73 % 1017,6 hPa 0,0 mm 0,4 km/h (0 Bft) S 180 0 min 0 W/m 10,0 C 14,8 C 3,2 km/h (1 Bft)
09/06/2012 14:30 15,5 C 72 % 1017,6 hPa 0,0 mm 2,9 km/h (1 Bft) O-SO 247 0 min 0 W/m 10,5 C 15,5 C 5,8 km/h (2 Bft)
09/06/2012 14:40 15,9 C 70 % 1017,5 hPa 0,0 mm 1,8 km/h (1 Bft) SE 135 0 min 0 W/m 10,4 C 15,9 C 4,3 km/h (1 Bft)
09/06/2012 14:50 16,2 C 69 % 1017,5 hPa 0,0 mm 3,6 km/h (1 Bft) S 180 0 min 0 W/m 10,5 C 16,2 C 3,6 km/h (1 Bft)
09/06/2012 15:00 16,3 C 69 % 1017,4 hPa 0,0 mm 2,2 km/h (1 Bft) S-SO 202 0 min 0 W/m 10,6 C 16,3 C 3,6 km/h (1 Bft)
09/06/2012 15:10 16,5 C 69 % 1017,3 hPa 0,0 mm 3,2 km/h (1 Bft) S-SO 202 0 min 0 W/m 10,8 C 16,5 C 4,3 km/h (1 Bft)
09/06/2012 15:20 16,8 C 69 % 1017,0 hPa 0,0 mm 0,4 km/h (0 Bft) SO 225 0 min 0 W/m 11,1 C 16,8 C 3,2 km/h (1 Bft)
09/06/2012 15:30 17,1 C 68 % 1017,0 hPa 0,0 mm 0,4 km/h (0 Bft) S 180 0 min 0 W/m 11,1 C 17,1 C 0,4 km/h (0 Bft)
09/06/2012 15:40 17,4 C 65 % 1016,9 hPa 0,0 mm 0,0 km/h (0 Bft) SO 225 0 min 0 W/m 10,8 C 17,4 C 3,2 km/h (1 Bft)
09/06/2012 15:50 17,4 C 65 % 1016,9 hPa 0,0 mm 4,7 km/h (1 Bft) S-SE 157 0 min 0 W/m 10,8 C 17,4 C 9,4 km/h (2 Bft)
09/06/2012 16:00 17,3 C 65 % 1016,7 hPa 0,0 mm 1,1 km/h (1 Bft) S 180 0 min 0 W/m 10,7 C 17,3 C 4,3 km/h (1 Bft)
09/06/2012 16:10 17,3 C 62 % 1016,6 hPa 0,0 mm 0,7 km/h (0 Bft) S-SO 202 0 min 0 W/m 9,9 C 17,3 C 0,7 km/h (0 Bft)
09/06/2012 16:20 17,1 C 63 % 1016,6 hPa 0,0 mm 2,2 km/h (1 Bft) S-SO 202 0 min 0 W/m 10,0 C 17,1 C 4,3 km/h (1 Bft)
09/06/2012 16:30 16,9 C 63 % 1016,5 hPa 0,0 mm 0,0 km/h (0 Bft) SO 225 0 min 0 W/m 9,8 C 16,9 C 0,0 km/h (0 Bft)
09/06/2012 16:40 16,8 C 63 % 1016,5 hPa 0,0 mm 2,5 km/h (1 Bft) S-SO 202 0 min 0 W/m 9,7 C 16,8 C 7,2 km/h (2 Bft)
09/06/2012 16:50 16,4 C 64 % 1016,4 hPa 0,0 mm 1,4 km/h (1 Bft) O-SO 247 0 min 0 W/m 9,6 C 16,4 C 1,4 km/h (1 Bft)
09/06/2012 17:00 16,1 C 64 % 1016,4 hPa 0,0 mm 0,7 km/h (0 Bft) O-SO 247 0 min 0 W/m 9,3 C 16,1 C 3,2 km/h (1 Bft)
09/06/2012 17:10 15,9 C 64 % 1016,4 hPa 0,0 mm 4,3 km/h (1 Bft) SO 225 0 min 0 W/m 9,1 C 15,9 C 4,3 km/h (1 Bft)
09/06/2012 17:20 15,8 C 65 % 1016,4 hPa 0,0 mm 1,8 km/h (1 Bft) S-SO 202 0 min 0 W/m 9,2 C 15,8 C 4,3 km/h (1 Bft)
09/06/2012 17:30 15,7 C 64 % 1016,2 hPa 0,0 mm 5,0 km/h (1 Bft) S-SO 202 0 min 0 W/m 8,9 C 15,7 C 10,8 km/h (2 Bft)
09/06/2012 17:40 15,5 C 66 % 1016,2 hPa 0,0 mm 4,7 km/h (1 Bft) S-SO 202 0 min 0 W/m 9,2 C 15,5 C 4,7 km/h (1 Bft)
09/06/2012 17:50 15,5 C 65 % 1016,1 hPa 0,0 mm 5,8 km/h (2 Bft) SO 225 0 min 0 W/m 8,9 C 15,5 C 9,7 km/h (2 Bft)
09/06/2012 18:00 15,4 C 66 % 1016,1 hPa 0,0 mm 1,4 km/h (1 Bft) S-SO 202 0 min 0 W/m 9,1 C 15,4 C 3,6 km/h (1 Bft)
09/06/2012 18:10 15,6 C 66 % 1016,0 hPa 0,0 mm 2,5 km/h (1 Bft) S-SO 202 0 min 0 W/m 9,3 C 15,6 C 4,3 km/h (1 Bft)
09/06/2012 18:20 16,1 C 65 % 1016,0 hPa 0,0 mm 0,0 km/h (0 Bft) S-SO 202 0 min 0 W/m 9,5 C 16,1 C 0,0 km/h (0 Bft)
09/06/2012 18:30 16,6 C 65 % 1016,0 hPa 0,0 mm 0,7 km/h (0 Bft) O-SO 247 0 min 0 W/m 10,0 C 16,6 C 4,0 km/h (1 Bft)
09/06/2012 18:40 16,8 C 63 % 1015,9 hPa 0,0 mm 4,3 km/h (1 Bft) O 270 0 min 0 W/m 9,7 C 16,8 C 8,3 km/h (2 Bft)
09/06/2012 18:50 16,9 C 63 % 1015,9 hPa 0,0 mm 1,1 km/h (1 Bft) SO 225 0 min 0 W/m 9,8 C 16,9 C 1,4 km/h (1 Bft)
09/06/2012 19:00 16,8 C 63 % 1015,9 hPa 0,0 mm 1,4 km/h (1 Bft) S-SO 202 0 min 0 W/m 9,7 C 16,8 C 6,8 km/h (2 Bft)
09/06/2012 19:10 16,6 C 63 % 1015,9 hPa 0,0 mm 0,0 km/h (0 Bft) S-SO 202 0 min 0 W/m 9,5 C 16,6 C 0,0 km/h (0 Bft)
09/06/2012 19:20 16,6 C 63 % 1015,8 hPa 0,0 mm 1,1 km/h (1 Bft) S-SO 202 0 min 0 W/m 9,5 C 16,6 C 3,6 km/h (1 Bft)
09/06/2012 19:30 16,6 C 63 % 1015,8 hPa 0,0 mm 2,9 km/h (1 Bft) S-SO 202 0 min 0 W/m 9,5 C 16,6 C 2,9 km/h (1 Bft)
09/06/2012 19:40 16,8 C 62 % 1015,7 hPa 0,0 mm 0,0 km/h (0 Bft) S-SO 202 0 min 0 W/m 9,5 C 16,8 C 0,0 km/h (0 Bft)
09/06/2012 19:50 17,1 C 61 % 1015,7 hPa 0,0 mm 0,0 km/h (0 Bft) SO 225 0 min 0 W/m 9,5 C 17,1 C 0,0 km/h (0 Bft)
09/06/2012 20:00 16,8 C 63 % 1015,7 hPa 0,0 mm 0,4 km/h (0 Bft) S 180 0 min 0 W/m 9,7 C 16,8 C 3,2 km/h (1 Bft)
09/06/2012 20:10 16,5 C 63 % 1015,6 hPa 0,0 mm 0,0 km/h (0 Bft) S-SO 202 0 min 0 W/m 9,4 C 16,5 C 0,0 km/h (0 Bft)
09/06/2012 20:20 16,3 C 65 % 1015,4 hPa 0,0 mm 0,0 km/h (0 Bft) S 180 0 min 0 W/m 9,7 C 16,3 C 0,0 km/h (0 Bft)
09/06/2012 20:30 16,1 C 66 % 1015,4 hPa 0,0 mm 0,0 km/h (0 Bft) S 180 0 min 0 W/m 9,7 C 16,1 C 0,0 km/h (0 Bft)
09/06/2012 20:40 15,8 C 66 % 1015,3 hPa 0,0 mm 0,0 km/h (0 Bft) O-SO 247 0 min 0 W/m 9,5 C 15,8 C 0,0 km/h (0 Bft)
09/06/2012 20:50 15,6 C 67 % 1015,3 hPa 0,0 mm 0,0 km/h (0 Bft) S-SO 202 0 min 0 W/m 9,5 C 15,6 C 0,0 km/h (0 Bft)
09/06/2012 21:00 15,4 C 68 % 1015,2 hPa 0,0 mm 0,0 km/h (0 Bft) S-SO 202 0 min 0 W/m 9,5 C 15,4 C 0,0 km/h (0 Bft)
09/06/2012 21:10 15,1 C 70 % 1015,1 hPa 0,0 mm 0,0 km/h (0 Bft) S-SO 202 0 min 0 W/m 9,7 C 15,1 C 0,0 km/h (0 Bft)
09/06/2012 21:20 14,9 C 70 % 1014,9 hPa 0,0 mm 0,0 km/h (0 Bft) S-SO 202 0 min 0 W/m 9,5 C 14,9 C 0,0 km/h (0 Bft)
09/06/2012 21:30 14,8 C 70 % 1015,0 hPa 0,0 mm 0,0 km/h (0 Bft) S-SO 202 0 min 0 W/m 9,4 C 14,8 C 0,0 km/h (0 Bft)
09/06/2012 21:40 14,5 C 71 % 1014,9 hPa 0,0 mm 0,0 km/h (0 Bft) S-SO 202 0 min 0 W/m 9,3 C 14,5 C 0,0 km/h (0 Bft)
09/06/2012 21:50 14,4 C 72 % 1015,1 hPa 0,0 mm 0,0 km/h (0 Bft) S 180 0 min 0 W/m 9,4 C 14,4 C 0,0 km/h (0 Bft)
09/06/2012 22:00 14,2 C 73 % 1015,0 hPa 0,0 mm 0,0 km/h (0 Bft) S 180 0 min 0 W/m 9,4 C 14,2 C 0,0 km/h (0 Bft)
09/06/2012 22:10 14,1 C 73 % 1015,0 hPa 0,0 mm 0,0 km/h (0 Bft) S 180 0 min 0 W/m 9,3 C 14,1 C 0,0 km/h (0 Bft)
09/06/2012 22:20 13,9 C 73 % 1015,0 hPa 0,0 mm 0,0 km/h (0 Bft) S 180 0 min 0 W/m 9,1 C 13,9 C 0,0 km/h (0 Bft)
09/06/2012 22:30 13,8 C 75 % 1015,1 hPa 0,0 mm 0,0 km/h (0 Bft) S 180 0 min 0 W/m 9,4 C 13,8 C 0,0 km/h (0 Bft)
09/06/2012 22:40 13,8 C 75 % 1015,1 hPa 0,0 mm 0,0 km/h (0 Bft) S-SE 157 0 min 0 W/m 9,4 C 13,8 C 0,0 km/h (0 Bft)
09/06/2012 22:50 13,7 C 76 % 1015,1 hPa 0,0 mm 0,0 km/h (0 Bft) S-SE 157 0 min 0 W/m 9,5 C 13,7 C 0,0 km/h (0 Bft)
09/06/2012 23:00 13,6 C 76 % 1015,1 hPa 0,0 mm 0,0 km/h (0 Bft) S 180 0 min 0 W/m 9,4 C 13,6 C 0,0 km/h (0 Bft)
09/06/2012 23:10 13,5 C 77 % 1014,9 hPa 0,0 mm 0,0 km/h (0 Bft) S 180 0 min 0 W/m 9,5 C 13,5 C 0,0 km/h (0 Bft)
09/06/2012 23:20 13,5 C 78 % 1014,9 hPa 0,0 mm 0,0 km/h (0 Bft) S 180 0 min 0 W/m 9,7 C 13,5 C 0,0 km/h (0 Bft)
09/06/2012 23:30 13,4 C 78 % 1014,8 hPa 0,0 mm 0,0 km/h (0 Bft) S-SO 202 0 min 0 W/m 9,6 C 13,4 C 0,0 km/h (0 Bft)
09/06/2012 23:40 13,4 C 79 % 1014,9 hPa 0,0 mm 0,0 km/h (0 Bft) S-SO 202 0 min 0 W/m 9,8 C 13,4 C 0,0 km/h (0 Bft)
09/06/2012 23:50 13,3 C 78 % 1014,8 hPa 0,0 mm 0,7 km/h (0 Bft) S 180 0 min 0 W/m 9,5 C 13,3 C 3,6 km/h (1 Bft)
_ Min-Heure 05:50 19:50 23:50 - 23:40 - - - - 05:50 05:50 23:40
Minimum _ 7,3 C 61 % 1014,8 hPa - 0,0 km/h (0 Bft) - - - - 5,9 C 7,3 C 0,0 km/h (0 Bft)
_ Max-Heure 15:50 08:00 12:30 23:50 13:10 - - 23:50 23:50 09:00 15:50 13:10
Maximum _ 17,4 C 93 % 1017,9 hPa 0,0 mm 7,2 km/h
O-SO (2 Bft)
- - 0 min 0 W/m 11,8 C 17,4 C 11,2 km/h
O-SO (2 Bft)
Moyenne _ 13,1 C 77 % 1017,0 hPa #0,0 mm 1,3 km/h (1 Bft) S-SO - #0 min. 0 W/m 9,0 C 13,1 C 2,5 km/h (1 Bft)
Saint Bonnet de Bellac- Haute Vienne - France